Погода в Атамановском

Россия / Челябинская область     52°13′44″N   60°42′14″E
темп.,
°C
ветер,
м/с
пор.,
м/с
влажн.,
%
обл.,
%
осадки,
мм/ч
давл.,
гПа
погр.,
м
10 мая, пн
пн1023:00+13ссз4961100 0.0 1015311
02:00+12с6125883 0.0 1016332
05:00+13с6136098 0.0 1017587
08:00+15ссв6125498 0.0 1018784
11:00+19ссв810375 0.0 10181704
14:00+22св78295 0.0 10182346
17:00+22св77286 0.0 10182580
20:00+17вюв58533 0.0 1021520
11 мая, вт
вт1123:00+13ююв22670 0.0 102326
02:00+12с11720 0.0 102311
05:00+10св34730 0.0 102553
08:00+13всв46390 0.0 1026369
11:00+18всв55270 0.0 10271491
14:00+20в45220 0.0 10271826
17:00+21в44210 0.0 10272037
20:00+18вюв343089 0.0 102777
12 мая, ср
ср1223:00+14юв3640100 0.0 1028111
02:00+13ююв2242100 0.0 102915
05:00+11зюз114798 0.0 103010
08:00+15в113999 0.0 1030174
11:00+19вюв232765 0.0 10301331
14:00+21юв22209 0.0 10291922
17:00+23ююв11180 0.0 10282038
20:00+21юз11240 0.0 102811
13 мая, чт
чт1323:00+18з22270 0.0 102815
02:00+15зсз33340 0.0 102820
05:00+14сз33405 0.0 102832
08:00+18ссз35355 0.0 1028250
11:00+23ссв34235 0.0 10271255
14:00+26ссв3323100 0.0 10262506
17:00+26ссв33245 0.0 10262655
20:00+23св353351 0.0 102684
14 мая, пт
пт1423:00+20в334010 0.0 102641
02:00+18ююз22485 0.0 102715
05:00+17зюз22525 0.0 102811
08:00+21з224233 0.0 1028204
11:00+25з21305 0.0 10282099
14:00+27зюз222555 0.0 10262534
17:00+28з332344 0.0 10252923
20:00+25з35305 0.0 102581